Theta_e
313 312 313 313 313 316 319 321 323 324 327 327 323 323 319 322 324 321 322 321 320 320 319 319 319 319 319 319 319 318 318 322 322 323 323 322 321 319 320 317 319 319 319 318 319 323 325 327 329 331 332 331 333 333 332 331 331 332 333 332 332 330 329 329 330 329 325 324 324 324 323 321 320 320 320 320 320 320 322 322 322 321 321 325 326 329 332 333 333 334 330 326 325 326 328 328 325
313 313 314 312 315 321 321 322 328 334 332 322 320 322 319 320 321 322 327 323 322 320 319 320 319 319 319 319 319 319 319 319 319 320 320 321 321 321 320 318 318 319 319 319 319 321 323 326 327 329 330 331 331 331 331 331 331 331 331 331 330 329 329 330 329 327 323 322 322 323 322 321 320 320 320 320 320 320 320 321 322 321 323 326 328 331 333 334 334 333 328 324 323 324 327 328 326
312 313 313 314 319 322 324 323 328 336 331 320 322 329 322 318 323 326 326 322 320 319 320 320 320 320 319 319 319 319 320 319 319 319 320 321 320 320 320 318 318 318 319 319 319 319 321 324 326 327 328 329 330 331 331 331 331 331 330 330 329 328 329 329 328 326 322 321 321 321 321 320 320 320 320 319 319 320 320 321 321 321 324 327 329 332 334 335 335 332 324 322 322 322 324 326 327
312 314 315 317 320 323 331 332 336 339 327 321 322 326 325 321 328 326 319 319 319 319 320 319 320 320 320 321 319 319 319 319 320 320 320 320 319 318 317 317 317 317 319 319 319 319 319 322 324 326 326 327 328 329 330 330 330 330 330 329 328 328 328 327 326 323 321 321 320 320 320 320 320 320 320 320 319 321 323 323 321 321 325 327 330 333 335 335 335 331 323 321 321 319 320 322 324
313 315 317 319 322 322 330 330 332 335 324 325 321 320 333 331 329 323 317 319 319 319 319 319 320 320 320 320 319 319 318 319 319 319 319 318 317 316 316 317 317 316 318 320 319 319 319 320 322 325 326 326 327 327 328 328 329 329 328 328 328 327 327 326 324 322 321 321 320 320 320 320 321 320 320 321 321 324 325 324 322 321 326 328 330 332 334 334 334 331 325 322 319 318 317 316 318
316 317 318 319 320 318 327 324 321 330 329 329 321 323 335 327 321 318 317 319 319 319 319 319 319 319 319 319 319 319 319 319 319 319 318 317 317 316 317 316 316 316 317 319 320 320 319 320 321 323 325 326 326 326 326 326 327 327 326 326 326 326 325 324 323 321 321 320 321 320 320 321 320 321 325 326 325 326 324 322 322 321 326 330 331 331 332 332 331 330 328 323 318 316 314 312 313
320 319 318 320 320 318 331 328 324 332 325 321 321 324 325 317 315 316 318 319 320 319 319 319 318 318 318 318 319 319 319 320 319 319 318 317 317 316 316 315 316 315 316 318 319 320 319 320 320 321 323 325 326 325 325 325 326 325 325 325 324 324 324 323 323 321 321 321 321 320 321 321 321 325 329 329 327 326 322 321 321 321 326 330 331 330 330 330 329 327 325 321 315 311 311 310 311
321 320 317 326 329 328 335 328 329 332 318 315 317 318 317 315 315 316 318 317 319 319 319 319 318 319 318 317 318 319 318 319 319 319 318 317 317 317 317 315 315 316 315 316 318 320 320 320 320 320 321 323 325 325 325 325 325 325 324 325 324 324 323 323 323 322 322 321 321 321 321 321 324 329 329 328 328 326 322 321 321 321 324 328 330 330 330 329 327 322 316 314 311 309 310 309 310
319 320 317 325 332 334 335 324 324 325 322 320 315 316 315 316 316 316 318 317 318 317 318 319 318 319 318 317 318 319 318 318 319 319 318 317 317 317 316 315 315 315 316 315 317 319 320 320 320 320 321 322 323 324 324 325 325 325 324 325 325 324 324 323 323 323 322 322 321 322 322 323 327 329 328 327 329 328 323 322 321 320 322 324 326 327 327 326 326 321 312 312 310 308 308 308 309
319 320 318 325 333 332 327 322 322 321 324 319 313 317 316 317 317 317 318 316 317 315 317 319 318 319 318 318 318 318 318 318 319 318 317 317 317 316 316 316 315 315 315 315 316 317 319 320 320 320 320 321 322 322 323 324 324 324 324 324 324 324 324 324 323 324 323 323 323 323 323 325 327 328 329 327 329 330 327 326 324 320 320 320 320 321 322 322 323 320 313 313 311 306 306 306 307
321 319 319 331 335 326 321 322 329 329 327 319 315 318 316 317 317 316 317 315 315 314 316 318 318 318 317 318 318 318 318 318 319 319 317 317 317 316 316 315 316 316 315 315 315 316 318 319 320 320 320 321 321 322 322 323 324 324 323 323 323 323 323 323 323 324 324 324 324 324 324 325 326 327 330 330 329 329 329 329 327 323 321 319 317 316 316 316 317 316 311 312 312 307 305 305 305
320 321 331 340 330 322 323 324 330 334 333 325 318 317 317 316 317 316 316 315 315 315 316 317 317 317 316 317 317 317 317 317 318 319 318 318 317 317 316 316 316 316 315 315 315 315 316 318 319 320 320 321 321 321 321 322 324 323 323 323 322 322 322 322 322 323 324 325 325 325 325 325 325 325 329 331 331 328 327 328 327 324 323 321 317 313 312 311 312 312 309 310 310 306 304 305 304
320 323 334 331 322 324 322 323 330 332 330 323 316 316 316 315 316 316 315 315 314 315 317 317 317 317 317 317 316 317 317 316 316 317 318 318 318 317 316 316 316 316 316 315 315 315 315 316 317 319 320 320 321 321 321 321 323 323 322 322 322 322 322 322 322 322 323 324 325 325 325 325 325 325 327 331 331 329 326 326 326 325 325 322 317 313 311 310 309 309 308 310 308 305 305 305 304
320 320 326 320 319 325 320 321 326 324 321 318 317 315 316 316 316 316 315 316 315 316 317 317 317 317 316 316 316 316 315 315 316 316 316 317 318 318 317 316 316 316 316 316 315 315 315 315 315 317 318 320 321 321 321 321 321 322 322 322 321 321 322 322 322 322 322 323 324 325 325 325 323 324 327 331 332 331 328 326 326 326 326 322 315 312 310 309 308 307 308 308 306 305 305 305 304
319 319 327 325 323 325 319 321 324 321 319 317 317 315 316 316 316 317 316 317 317 316 317 317 317 316 316 315 316 316 315 316 316 316 315 316 317 318 317 316 316 316 316 316 315 315 315 315 315 316 317 318 320 320 321 321 321 321 321 321 321 321 321 322 321 321 321 321 322 323 324 325 324 323 325 328 332 332 330 328 328 327 327 321 314 310 308 307 307 306 307 306 306 305 305 305 305
318 317 325 325 320 321 318 319 323 323 319 316 316 315 316 316 316 317 316 317 317 316 317 317 316 316 316 315 316 315 316 316 315 316 315 316 317 317 317 316 317 316 316 316 316 316 315 315 315 315 315 316 318 319 320 321 321 322 322 322 322 322 322 321 321 321 319 319 320 320 322 324 323 322 322 324 329 332 330 330 329 328 326 320 313 310 307 306 306 306 306 306 305 305 305 304 305
315 319 328 323 318 320 320 322 323 321 320 317 316 316 316 316 317 316 317 317 316 317 316 316 316 316 316 316 316 315 316 315 315 316 315 316 316 317 317 317 317 317 317 317 317 316 316 315 314 315 315 315 316 317 318 320 321 322 323 322 322 323 322 322 322 322 320 319 319 319 321 322 322 321 320 322 327 330 330 330 329 328 324 316 312 311 308 305 305 306 306 305 305 305 305 304 305
318 328 326 320 323 324 324 325 320 316 318 317 316 316 315 317 317 316 317 317 316 316 316 316 315 315 315 315 315 315 315 315 315 315 316 316 316 316 316 317 317 316 317 316 317 317 317 316 315 315 315 315 315 316 316 317 319 321 322 322 322 322 323 324 323 322 322 321 320 319 319 320 321 322 322 324 328 330 329 329 328 327 321 314 312 311 309 306 305 306 305 305 305 305 305 305 306
321 327 320 324 333 325 319 321 316 315 317 316 316 316 315 316 316 315 317 316 316 316 316 316 315 315 315 315 315 315 315 315 315 315 315 316 316 316 316 316 316 316 317 317 317 317 317 316 316 315 315 315 315 316 316 316 317 318 320 322 322 322 323 324 325 325 324 323 321 319 317 318 320 322 324 326 328 329 329 328 327 325 319 314 312 312 311 307 305 305 305 305 304 304 304 305 306
318 320 322 333 329 317 315 316 316 316 316 315 315 315 314 315 315 315 315 315 315 315 315 315 315 316 315 315 315 315 315 314 314 314 315 315 315 315 316 316 316 317 317 317 317 317 318 317 316 316 315 316 315 316 316 316 317 317 319 320 321 322 323 323 324 325 326 326 323 320 317 317 319 321 323 326 328 329 329 328 327 324 319 315 313 312 311 309 306 305 305 304 304 304 304 305 305
316 318 327 329 316 315 318 316 316 316 315 315 314 314 315 315 315 315 315 315 317 315 315 315 315 315 315 315 315 314 315 314 314 314 314 314 315 315 315 315 315 316 316 316 317 317 318 317 317 316 316 316 316 316 316 316 317 317 318 319 321 322 323 323 323 323 324 324 323 321 318 316 318 320 321 323 327 328 329 328 327 325 319 315 314 312 312 310 306 305 305 304 303 304 304 304 305
318 319 321 319 313 316 318 316 318 316 315 315 314 315 316 316 315 315 315 316 317 316 316 316 315 315 314 314 314 314 314 314 314 314 314 314 314 315 315 315 315 315 315 315 316 317 317 317 317 317 317 317 317 317 317 317 317 317 318 318 320 321 322 322 323 323 323 322 322 321 319 316 316 319 319 320 323 326 327 327 325 323 319 316 314 313 312 310 308 305 305 304 303 304 304 304 305
319 320 316 316 316 316 318 317 317 317 316 314 314 315 315 315 315 315 314 315 317 316 316 315 314 315 314 314 314 314 314 314 314 314 314 314 314 314 314 315 315 315 315 314 315 316 317 317 317 317 317 317 317 317 318 318 318 318 318 318 320 321 322 323 323 322 322 321 321 322 320 316 316 318 320 319 321 324 326 324 322 321 319 317 315 314 313 310 308 306 305 304 303 303 303 303 304
319 321 316 316 316 314 317 316 316 316 315 314 314 314 313 314 315 315 314 316 317 316 315 314 314 314 314 314 314 314 314 313 313 313 314 314 314 314 314 315 314 315 314 315 314 315 316 317 317 316 316 316 317 318 318 319 319 319 318 319 320 320 322 323 323 322 324 323 321 322 322 318 316 318 320 320 321 324 326 325 324 323 322 320 317 315 313 312 310 308 305 304 304 303 303 303 303
318 321 316 314 315 314 316 315 315 315 314 314 313 312 312 314 314 313 314 317 317 315 314 314 314 314 314 314 314 314 313 314 313 313 313 313 314 314 314 314 314 314 314 314 314 314 316 316 316 316 316 316 317 318 319 319 319 319 319 319 320 321 322 322 323 323 324 325 323 323 322 320 318 319 320 321 322 323 325 326 326 325 325 324 321 317 314 313 312 311 308 305 304 303 303 303 303
316 317 314 313 314 314 314 314 314 314 314 314 313 312 313 313 313 313 316 317 315 314 313 313 313 314 314 314 313 314 313 314 313 314 314 313 313 313 314 314 314 314 314 314 314 315 315 315 315 315 316 317 317 318 319 320 320 320 320 320 321 322 323 323 324 324 324 324 323 323 323 321 320 320 321 321 321 323 325 326 326 326 326 325 323 318 315 314 314 314 311 307 304 303 303 303 303
314 313 313 313 313 313 313 313 314 313 313 312 313 314 312 311 313 316 317 315 314 314 313 313 313 313 313 313 313 313 313 313 313 313 313 313 313 313 313 314 314 314 314 314 314 315 315 315 315 315 316 317 317 318 319 320 321 321 321 322 322 323 324 325 325 326 325 324 324 323 323 322 321 321 323 324 323 324 326 326 326 326 325 325 323 321 318 316 315 316 314 310 305 303 303 302 302
313 312 313 313 312 313 313 313 313 313 313 313 313 312 311 311 313 317 317 314 313 313 312 312 312 312 312 313 313 313 313 313 313 312 312 312 313 313 313 313 313 314 314 314 314 315 315 315 316 316 316 316 316 317 320 321 322 322 322 322 323 323 325 326 327 327 327 327 326 326 325 324 324 324 324 326 326 325 326 326 326 326 325 325 324 323 322 319 317 316 316 313 308 304 303 302 302
313 312 314 316 314 315 314 312 312 312 314 314 312 314 316 314 315 317 316 314 313 311 312 311 311 312 312 312 312 312 312 312 312 312 312 312 311 311 312 312 312 313 313 313 313 314 314 315 316 316 316 316 315 316 319 322 323 324 324 324 324 325 325 327 327 328 328 328 328 327 327 326 326 326 326 326 326 325 326 326 326 326 326 325 324 324 324 321 318 318 317 316 312 306 302 302 302
314 311 312 316 317 320 315 310 312 312 314 313 312 318 324 323 317 316 316 314 313 311 311 311 310 311 311 311 311 311 311 311 311 311 311 311 310 311 311 311 311 312 312 312 313 313 313 314 315 315 315 315 315 315 318 321 323 324 325 325 325 325 326 326 327 328 328 328 328 328 327 328 327 327 326 326 326 326 326 326 326 326 325 324 324 324 323 322 321 320 319 317 316 311 305 302 302
314 310 315 318 316 326 321 310 312 314 313 312 312 318 325 325 317 314 314 313 314 311 310 310 309 309 309 309 309 310 310 310 310 310 310 310 310 310 310 310 311 311 312 312 313 314 314 314 314 314 315 315 315 316 319 322 324 325 325 325 326 326 326 326 326 327 327 326 326 326 326 327 326 326 326 325 326 326 325 325 325 325 325 324 324 324 323 323 323 322 321 319 318 315 309 303 302
321 313 322 325 316 325 325 310 310 315 313 310 313 319 321 319 316 313 312 312 313 310 309 309 308 308 307 308 308 308 308 308 308 309 309 309 309 309 309 310 310 311 312 313 314 315 315 315 315 315 315 316 317 318 321 324 325 325 325 326 326 326 326 327 327 326 326 326 326 326 325 325 325 325 325 325 325 325 325 324 324 324 324 324 324 324 324 324 323 323 322 321 319 317 312 305 301
327 317 322 329 319 320 322 313 310 311 312 310 312 317 319 318 315 314 312 311 312 310 308 307 306 307 306 306 306 306 307 307 308 308 308 308 308 309 309 309 310 311 312 313 315 316 316 317 317 317 316 317 318 320 322 324 325 326 326 326 326 327 327 327 327 327 327 327 327 326 325 324 324 324 324 324 324 324 324 324 324 324 324 324 324 324 324 324 324 323 323 321 320 319 315 309 306
328 318 317 324 320 317 319 319 313 310 313 313 312 314 317 317 314 312 312 310 311 310 307 306 305 305 304 305 305 305 306 306 307 307 307 307 307 308 308 309 310 311 312 313 314 316 316 317 317 317 317 318 319 321 323 324 325 325 325 325 325 325 325 325 324 325 326 326 326 326 326 326 325 325 325 326 326 325 325 325 324 324 324 324 324 323 323 322 322 322 323 322 321 320 318 316 314
328 322 319 321 320 317 318 319 316 313 316 315 314 315 316 317 313 310 310 309 310 308 305 305 304 303 303 303 304 304 304 305 305 305 306 306 307 308 308 309 310 311 311 312 313 314 315 315 316 317 317 318 319 320 322 323 324 324 324 324 324 324 324 323 322 322 324 325 326 326 326 326 326 326 326 327 327 327 326 325 324 324 323 324 324 323 323 322 321 321 321 321 321 320 319 319 318
326 324 323 324 321 319 318 317 314 312 315 316 316 316 317 318 314 309 309 309 308 305 304 303 302 302 302 302 302 302 302 303 303 304 305 306 307 308 308 309 309 310 310 311 311 311 312 313 313 314 315 317 319 320 322 322 323 323 323 323 324 324 323 323 323 323 324 324 324 324 324 324 324 324 324 325 326 326 325 325 325 325 324 324 324 324 323 322 321 320 320 320 320 319 319 319 318
318 318 319 320 319 318 316 317 316 310 313 319 318 316 318 318 315 308 307 309 306 303 303 301 301 301 301 301 301 301 301 301 302 303 305 306 307 307 308 308 309 309 309 309 309 309 309 310 310 311 312 314 316 317 319 320 321 321 322 321 322 322 321 322 322 322 322 322 322 322 322 323 323 323 323 324 324 324 324 323 324 323 323 323 323 322 322 321 321 320 319 319 318 317 318 318 318
313 315 316 317 317 316 314 315 315 310 313 320 317 316 319 319 315 307 305 307 305 303 302 301 300 300 300 300 300 300 300 301 302 303 304 305 306 307 307 307 307 307 307 307 307 307 307 308 308 308 309 310 310 311 313 314 315 316 317 318 318 319 319 319 319 319 319 320 320 320 321 321 321 322 322 322 322 322 322 322 322 322 321 321 321 321 321 321 320 319 318 317 317 318 318 318 317
314 315 315 317 317 316 318 317 314 311 314 321 318 316 319 317 311 306 303 304 303 302 302 300 300 300 299 300 299 300 301 301 303 303 304 305 306 306 306 307 307 307 307 307 307 307 307 307 307 307 307 307 308 308 308 309 310 310 311 312 313 314 314 315 315 315 316 316 317 318 318 318 319 320 320 320 320 320 320 320 320 320 320 320 319 319 319 319 318 318 317 317 317 317 317 317 317
318 318 317 319 317 317 322 320 316 315 314 318 318 315 318 316 308 305 302 301 301 300 300 300 299 299 299 299 299 300 301 301 302 303 304 305 306 306 306 306 306 306 306 306 306 306 306 306 306 306 306 307 307 307 307 307 307 307 307 307 308 308 309 310 310 310 310 310 310 311 312 312 314 315 316 316 317 317 317 318 318 318 318 318 318 318 318 318 318 317 316 315 315 315 315 315 315
320 320 317 319 318 317 320 319 318 319 316 315 315 317 324 320 313 309 304 302 301 300 300 299 299 298 298 299 299 300 300 301 302 303 304 305 305 305 305 305 305 305 305 305 305 305 305 305 305 305 305 305 305 306 306 306 306 306 306 306 306 306 306 306 306 306 305 305 305 305 305 306 307 308 309 310 311 312 313 314 314 315 316 316 316 316 316 316 316 315 315 315 314 313 313 313 313
322 323 319 318 319 318 319 318 318 321 322 316 312 321 332 327 319 312 305 304 303 300 299 299 298 298 298 299 299 299 300 301 302 303 304 305 305 304 304 305 305 305 304 304 304 304 304 304 304 304 304 304 304 304 304 304 305 305 305 305 305 305 305 305 305 304 304 304 303 303 303 303 304 304 304 305 305 306 307 308 309 310 311 312 312 313 313 313 313 314 314 313 313 312 311 311 311
322 322 319 317 316 317 319 319 318 322 324 315 310 318 327 328 325 314 305 305 304 300 299 298 298 298 298 298 298 299 300 300 301 303 303 304 304 304 304 304 304 304 304 304 304 303 303 303 303 303 303 303 303 302 303 303 303 303 303 303 303 303 304 303 303 303 303 303 303 303 303 303 303 303 303 303 303 303 304 304 304 305 306 306 308 309 310 310 311 311 312 312 312 311 310 309 309
324 319 318 319 317 318 321 319 318 321 319 317 317 316 317 322 323 312 305 307 305 302 301 299 298 298 297 298 298 298 299 300 301 302 303 303 303 303 304 304 304 304 304 303 304 303 303 303 303 303 303 302 302 302 302 302 302 302 302 302 302 302 302 302 302 302 302 302 302 302 302 302 302 302 302 302 302 302 302 302 302 302 303 303 304 304 305 306 307 308 309 309 310 310 310 308 308
322 316 316 319 318 321 323 319 319 317 313 320 324 316 314 320 319 309 305 310 308 304 302 300 298 297 297 297 297 298 299 300 301 302 303 303 303 303 303 303 303 303 303 303 303 303 302 302 302 302 302 302 301 301 302 302 301 301 301 301 301 301 301 301 301 301 301 301 301 301 301 301 301 301 301 301 301 302 302 301 301 301 301 301 301 302 302 302 303 304 305 306 307 308 308 308 307
314 311 315 318 318 320 322 320 321 316 314 321 323 317 316 321 322 312 307 311 312 306 302 300 298 297 297 297 297 297 298 299 301 302 302 302 302 302 302 303 303 303 303 303 302 302 302 302 302 302 301 301 301 301 301 301 301 301 301 300 300 300 300 300 300 300 300 300 300 300 300 300 300 300 300 300 300 300 300 300 301 301 301 300 300 300 300 300 300 301 301 301 303 304 305 306 306
308 313 319 321 320 320 321 321 318 316 319 323 321 317 315 319 324 318 310 311 310 306 303 300 298 297 297 297 297 297 298 299 301 301 302 302 302 302 302 302 302 302 302 302 302 302 301 301 301 301 301 300 300 300 300 300 300 300 300 300 300 300 299 299 299 299 299 299 299 299 298 298 299 298 298 298 298 298 298 298 299 299 299 299 299 299 299 299 299 299 299 299 300 300 301 302 303
310 319 322 322 323 320 320 322 319 318 324 323 317 314 313 317 323 318 312 308 305 305 304 301 299 298 297 297 297 297 298 299 300 301 301 302 302 302 302 302 302 302 301 301 301 301 301 300 300 300 300 300 300 299 299 299 299 299 299 298 298 298 298 298 298 298 297 297 297 296 296 296 297 296 296 296 296 296 296 296 296 297 297 297 297 297 297 298 298 298 298 298 298 298 298 299 300
315 320 321 322 323 320 321 323 319 320 321 316 313 313 313 317 319 315 313 307 301 301 302 300 298 297 297 297 297 297 298 299 299 300 301 302 302 302 302 302 301 301 301 301 300 300 300 300 299 300 300 299 299 299 299 298 298 298 297 297 297 296 296 296 295 295 295 294 294 294 294 294 294 294 294 293 293 293 292 292 293 293 293 293 293 293 293 294 294 295 296 296 297 297 298 298 298
315 318 321 323 322 321 323 321 316 318 319 312 311 313 315 318 316 311 308 304 298 298 300 300 299 298 298 297 297 297 297 298 299 300 301 301 301 301 301 301 301 300 300 300 300 299 299 299 299 299 299 298 298 298 298 298 298 297 297 296 295 295 294 294 293 292 292 291 291 291 291 291 291 291 291 291 290 290 290 290 290 290 290 290 290 291 291 291 291 291 291 292 293 294 294 295 296
313 317 318 320 323 324 323 321 318 319 319 313 309 313 321 322 313 303 300 299 297 299 300 300 299 298 298 297 296 297 297 297 298 300 301 301 301 301 300 300 300 300 299 299 299 299 298 298 298 298 298 297 297 297 297 297 297 296 296 295 294 294 293 292 291 291 290 290 289 289 289 289 290 290 289 289 289 289 289 289 289 289 289 289 289 289 290 290 290 290 290 289 289 290 290 291 292
313 313 315 317 321 320 318 318 318 317 318 315 313 317 321 316 306 299 299 298 297 298 298 298 298 297 297 296 296 296 297 298 298 300 301 301 300 300 300 300 299 299 299 298 298 298 297 297 297 297 297 297 296 296 296 295 295 295 294 293 293 292 291 291 291 290 290 289 289 289 289 289 289 289 289 289 289 289 289 289 289 289 289 289 289 289 289 289 289 289 289 289 289 289 289 289 289
313 312 317 317 314 317 319 318 314 312 316 317 316 319 318 311 306 301 299 299 298 297 297 297 297 297 297 296 296 297 297 298 298 299 300 300 300 300 299 299 299 299 298 298 297 297 296 296 296 296 295 295 295 294 294 293 293 293 292 292 291 291 291 291 290 290 290 289 289 289 289 289 289 289 289 289 289 289 289 289 289 289 289 289 289 288 288 288 288 288 288 288 288 288 288 288 288
316 316 318 313 311 317 320 319 318 316 318 317 316 317 317 316 313 304 300 301 300 298 297 296 296 297 297 296 297 297 298 298 298 299 299 299 299 299 299 299 298 298 297 297 296 296 295 295 295 294 294 293 293 292 292 291 291 291 290 290 290 290 290 290 289 289 289 289 289 289 289 289 289 289 289 289 290 290 289 289 289 289 289 289 289 289 289 289 288 288 288 288 288 288 288 288 287
313 315 312 312 317 320 317 317 320 320 318 318 320 318 315 316 315 311 309 305 301 299 298 297 296 296 296 297 297 298 298 297 297 298 299 299 299 299 298 298 298 297 296 296 295 294 294 294 293 293 292 291 291 291 290 290 290 290 289 289 289 289 289 289 289 289 289 289 289 289 289 289 289 289 289 289 289 290 290 290 290 290 289 289 289 289 288 288 288 288 288 288 288 288 288 288 288
308 310 310 312 318 319 318 316 318 320 318 318 321 318 317 317 316 318 318 308 300 299 299 297 297 296 297 298 298 298 298 297 298 299 299 299 299 298 298 297 297 297 296 295 294 294 293 292 292 291 291 291 290 290 290 290 290 289 289 289 289 289 289 289 289 289 289 289 289 289 289 289 289 289 289 289 288 289 289 289 289 289 289 289 289 288 288 288 288 288 288 288 288 288 288 288 288
312 313 314 314 314 315 317 315 315 319 320 321 320 316 319 320 312 313 315 307 300 299 298 297 297 297 298 298 298 298 298 299 299 300 299 299 298 298 297 297 297 296 295 294 293 293 292 291 291 291 291 291 290 290 290 290 289 289 289 289 289 289 289 289 289 289 288 288 288 288 288 288 288 288 288 288 287 287 287 287 287 287 287 287 287 288 288 288 288 287 287 287 287 287 287 287 287
315 315 316 316 315 315 317 315 315 316 317 321 320 315 318 316 307 307 309 304 300 299 298 298 297 298 298 299 299 299 299 300 300 300 299 299 298 298 297 297 297 296 294 293 292 292 291 291 291 291 290 290 290 289 289 289 289 289 289 289 289 289 289 288 288 288 288 288 288 288 287 287 287 287 287 287 287 287 286 286 286 286 286 286 286 286 286 287 287 287 287 287 287 287 287 287 287
Wind_Speed
7 6 7 6 6 6 5 3 0 2 4 2 2 0 2 3 2 1 2 3 1 3 3 1 1 3 1 0 2 2 3 3 3 2 1 4 2 4 3 1 1 1 1 5 8 12 16 17 16 15 14 14 15 15 15 15 16 16 15 15 14 13 12 12 12 13 14 14 13 11 10 9 8 6 6 5 4 5 5 5 5 5 5 4 4 5 4 5 5 6 5 3 2 2 3 3 3
6 5 6 4 4 5 4 1 2 3 5 2 2 2 3 2 1 3 6 4 2 1 1 0 0 2 1 1 1 1 2 4 4 3 3 4 3 4 3 2 0 2 2 3 6 10 14 16 16 15 14 14 14 14 13 13 14 13 13 13 13 12 11 12 12 13 13 12 11 9 8 7 6 6 5 4 5 5 6 5 5 4 4 3 4 5 5 6 7 7 5 3 2 3 3 4 4
5 4 5 3 3 3 1 3 2 1 5 2 3 4 2 1 4 7 8 5 2 1 0 0 1 1 0 2 1 1 2 4 4 5 4 3 3 4 4 4 2 3 3 3 4 7 11 14 16 16 15 14 14 14 13 13 13 12 11 11 12 12 12 12 12 13 12 11 10 9 8 7 7 6 6 6 7 8 8 7 6 4 4 4 5 6 6 6 7 8 5 2 3 3 4 4 5
4 3 4 2 2 2 2 4 2 4 3 2 2 4 2 3 7 7 6 4 2 1 1 2 2 1 1 2 1 1 3 4 2 4 3 3 3 5 5 4 3 3 4 4 3 6 8 12 14 16 15 14 14 14 13 13 13 12 11 10 12 12 11 12 13 14 13 12 11 10 9 9 8 7 8 7 8 8 8 7 6 5 5 5 7 7 8 6 7 7 4 2 4 5 5 6 6
3 3 3 2 1 1 3 3 2 4 3 4 1 4 5 6 6 6 3 2 3 1 2 2 2 2 3 3 2 1 2 2 1 3 3 4 4 5 6 5 3 3 4 5 4 4 6 10 12 15 15 15 15 14 13 13 13 12 11 10 12 12 12 12 13 13 13 12 11 11 10 9 8 8 8 7 6 6 5 5 5 5 6 6 8 8 8 7 7 6 5 5 6 7 9 8 7
3 2 4 3 2 1 2 3 2 0 4 5 2 5 6 6 6 4 1 2 2 1 2 1 2 2 2 2 2 2 2 3 4 3 3 3 4 5 5 5 3 3 4 5 5 4 5 8 10 13 15 15 15 14 14 13 13 13 11 11 12 13 12 12 13 13 12 12 11 11 10 9 9 8 7 6 4 5 5 5 5 6 7 8 7 8 10 10 10 8 8 9 9 9 10 9 8
2 2 4 2 3 3 3 3 3 2 3 5 3 5 6 6 6 2 2 2 1 2 2 1 2 2 1 3 3 3 4 5 6 5 4 3 3 4 5 6 4 2 3 5 6 5 4 7 9 12 13 15 15 15 14 14 14 13 12 12 13 13 12 13 13 13 13 12 12 12 11 10 9 7 7 7 5 7 6 5 6 8 8 8 8 9 11 12 12 10 11 12 11 9 8 9 8
3 3 3 2 2 4 4 2 3 2 1 3 4 4 6 4 4 1 1 1 1 2 3 3 3 3 1 3 4 5 7 8 7 6 5 4 3 4 4 6 5 3 3 5 6 6 6 6 8 11 12 14 15 15 15 14 14 14 13 13 13 13 13 13 14 14 13 14 13 12 12 10 8 7 9 9 8 8 8 6 6 8 8 8 9 10 12 13 13 14 13 10 10 8 7 7 7
4 4 3 3 2 3 3 1 2 3 3 4 4 5 5 3 3 0 1 1 1 3 4 3 2 3 4 7 7 6 6 7 7 5 5 4 3 4 3 5 6 5 3 3 6 7 7 7 7 10 12 13 15 15 15 15 15 15 14 14 14 14 14 14 14 15 15 15 14 13 12 10 9 9 10 11 10 10 10 8 7 7 8 8 9 11 12 14 14 15 13 9 8 8 7 6 6
4 5 2 2 3 4 3 1 2 2 4 5 5 6 4 2 3 1 2 2 2 3 5 3 2 3 6 9 8 5 5 8 8 4 5 5 4 5 3 3 5 5 4 3 5 7 8 8 8 9 11 13 15 15 15 16 16 16 15 15 15 15 15 15 15 15 16 16 15 14 13 11 10 9 11 12 11 11 11 10 8 7 7 8 9 11 13 15 15 17 15 10 8 8 7 6 5
3 5 3 4 4 3 1 2 4 4 5 6 6 5 2 2 2 2 3 2 0 3 5 3 1 2 4 8 8 7 8 9 7 4 5 6 6 6 5 2 4 6 5 3 5 7 8 9 9 9 10 12 15 15 15 16 16 16 16 16 16 15 15 15 15 16 16 16 16 15 14 12 11 11 12 13 12 13 12 10 10 9 7 8 9 11 13 15 16 19 16 11 8 8 7 6 4
2 3 3 4 3 1 2 2 5 6 7 5 2 1 1 2 1 1 2 1 1 3 4 3 2 2 1 5 8 8 8 9 7 5 6 9 9 9 7 5 4 7 6 4 5 7 8 10 10 11 11 12 14 15 16 16 17 17 17 16 16 16 16 16 16 16 17 17 17 16 14 13 12 12 13 14 14 14 14 12 11 10 9 10 10 12 13 14 14 16 13 8 7 7 6 5 5
2 2 4 3 2 2 2 1 4 4 6 3 2 3 3 3 2 2 1 1 3 2 3 2 2 2 1 6 7 5 8 12 10 9 9 11 12 12 10 8 7 8 7 5 5 7 8 10 11 12 12 12 14 15 16 16 17 18 17 17 17 16 16 16 16 17 17 18 18 17 15 14 13 13 14 15 16 16 16 14 12 11 11 11 12 13 13 12 11 11 9 6 7 7 6 6 5
3 3 4 2 1 2 3 1 2 1 2 3 3 5 5 4 5 5 2 3 4 2 2 2 1 2 3 5 5 5 11 17 16 14 12 11 12 12 12 11 10 10 9 7 5 6 8 9 11 12 13 14 15 15 16 16 17 18 18 18 17 17 16 17 17 17 18 18 19 18 17 16 15 15 15 16 17 17 16 15 13 13 12 11 11 12 12 12 9 8 7 6 7 7 6 6 6
4 3 4 3 2 1 3 0 1 4 1 3 4 8 8 6 6 7 5 3 5 3 3 3 3 4 3 3 7 12 16 18 18 16 12 10 11 12 12 12 13 13 11 9 7 7 8 10 11 12 13 14 15 16 16 16 17 18 18 18 18 17 17 17 17 17 17 18 19 19 18 17 16 16 18 18 18 17 16 16 14 14 13 11 11 11 12 11 9 6 5 6 7 7 7 7 7
4 3 4 3 1 1 2 1 2 3 2 3 5 9 8 5 5 7 7 6 9 8 5 5 6 8 10 11 15 19 19 19 17 14 12 11 10 11 13 14 15 16 14 12 10 9 9 10 12 13 14 14 15 16 17 17 17 18 18 19 19 18 18 18 17 17 17 17 18 18 18 18 18 18 19 20 20 19 18 18 17 15 13 12 11 11 11 11 7 6 6 7 8 8 8 8 7
3 3 4 2 1 1 2 3 2 2 5 5 8 9 3 5 7 7 9 10 13 13 12 13 12 13 15 17 18 19 18 17 16 15 15 13 11 11 13 14 16 17 17 16 14 12 11 11 12 13 15 15 15 16 17 17 17 18 18 19 19 19 19 19 18 18 17 17 17 18 18 18 19 19 20 20 20 20 19 19 18 16 14 12 11 11 11 10 8 6 6 7 9 9 9 9 8
2 3 3 0 3 3 4 6 5 3 3 5 7 6 2 5 8 9 9 10 14 18 22 21 15 13 13 13 14 15 16 15 16 16 16 15 14 13 13 14 15 16 16 17 16 15 13 12 13 14 15 16 16 16 17 17 18 18 19 19 19 19 20 20 20 19 18 18 18 18 18 18 18 18 19 19 20 21 20 20 19 17 14 12 12 12 12 11 9 7 7 8 10 10 10 10 9
2 3 2 3 5 5 5 7 5 2 3 7 7 6 4 5 8 8 6 10 15 15 23 25 18 16 17 17 16 15 16 16 16 15 16 17 16 16 15 15 16 16 16 17 17 16 15 14 13 14 15 16 17 17 17 17 18 19 19 20 20 20 20 21 21 20 20 19 19 19 18 18 18 18 18 19 21 21 21 20 18 17 15 13 13 12 13 12 11 9 8 9 11 11 11 11 10
1 3 1 5 6 4 5 7 7 5 6 7 7 6 6 7 8 6 3 9 14 11 17 19 18 23 24 22 20 18 17 16 15 15 17 17 17 19 19 19 19 19 19 19 18 17 17 15 14 13 13 15 18 19 19 18 19 19 20 20 21 20 21 21 21 21 21 21 21 20 19 18 19 19 19 20 21 22 21 20 18 17 16 15 14 13 13 14 13 12 9 9 12 13 12 12 11
1 3 3 4 3 2 7 7 7 6 5 7 8 8 9 10 6 5 4 6 9 14 18 16 19 26 25 22 19 16 16 14 13 13 14 14 15 16 17 18 19 20 20 20 19 18 18 16 13 12 12 13 15 18 19 20 19 20 20 21 21 21 22 22 22 22 22 22 22 21 20 19 20 20 20 20 21 22 22 21 19 19 18 17 15 14 14 15 15 14 10 9 12 14 13 13 12
2 4 5 5 2 2 9 9 8 7 6 9 10 8 9 10 8 9 6 3 8 18 23 22 23 24 21 19 16 13 13 13 12 11 11 12 12 12 13 15 16 17 18 18 18 18 18 16 14 12 11 11 12 14 16 18 19 20 20 20 21 22 22 22 22 23 23 24 23 22 22 21 21 21 20 20 22 23 24 23 22 20 19 18 17 15 15 16 16 16 12 9 13 15 14 14 14
2 4 6 7 6 6 12 13 12 13 11 10 9 9 11 10 12 12 9 13 18 22 23 22 20 17 15 12 11 11 11 11 11 10 10 11 11 11 12 13 15 17 18 18 17 17 16 15 14 12 11 10 10 11 12 14 16 17 19 20 21 21 22 23 23 23 24 24 24 23 23 22 22 22 21 21 22 24 24 24 23 22 20 19 18 17 16 17 17 17 15 11 13 17 16 16 15
4 3 4 6 7 9 13 14 15 16 15 15 12 12 12 10 10 10 15 23 21 20 18 15 14 12 10 8 9 10 11 11 10 9 9 10 12 12 13 15 16 18 18 18 17 16 15 14 13 11 9 8 9 10 11 11 12 14 15 17 19 20 21 23 23 23 24 25 24 24 24 23 23 22 22 22 23 24 24 25 24 22 22 21 21 19 18 18 18 18 17 14 14 18 18 17 17
5 4 5 5 8 11 14 16 18 20 19 18 13 13 16 15 10 10 20 22 15 13 12 10 9 9 9 8 9 8 9 9 8 8 8 8 10 11 13 15 16 16 16 15 15 15 14 13 12 10 8 7 7 9 10 10 11 12 13 14 15 17 19 20 21 22 23 25 25 24 23 24 23 23 23 23 24 25 25 25 25 24 24 24 23 22 20 19 20 20 19 17 15 18 20 19 18
6 7 5 6 11 14 16 18 20 20 18 14 8 12 17 12 7 10 16 12 8 9 7 8 7 7 7 8 8 7 8 8 8 8 8 9 9 9 11 13 14 13 13 13 13 13 13 13 12 10 8 7 7 7 8 9 9 10 11 12 13 14 15 16 19 20 21 22 23 23 23 23 24 23 23 23 23 24 25 26 26 26 26 26 25 23 22 21 20 20 20 19 17 18 21 21 20
5 4 6 10 14 16 16 17 21 18 14 13 9 10 12 3 1 6 7 2 4 6 9 7 6 5 5 6 7 8 8 9 9 8 8 9 9 9 9 9 10 9 10 10 11 11 12 13 13 12 11 9 8 6 6 7 8 8 9 11 12 12 12 13 15 16 17 17 18 19 20 21 22 23 22 22 23 23 25 26 27 27 27 27 26 25 23 22 21 20 20 20 19 19 21 23 22
2 3 7 11 12 16 16 15 18 12 6 8 8 6 5 2 3 7 6 4 7 8 9 5 4 4 3 3 5 6 7 9 9 8 7 8 7 7 6 5 6 7 8 9 9 9 9 11 12 13 12 10 8 6 4 5 6 6 7 9 10 10 11 12 12 12 13 14 14 15 16 17 19 20 21 22 24 24 25 26 27 28 28 28 27 26 24 22 20 19 19 20 21 20 21 24 24
3 3 4 9 9 11 13 8 5 2 1 3 4 3 4 2 7 10 7 6 10 10 9 5 4 4 3 1 2 3 5 6 7 8 7 6 6 6 6 6 7 7 8 8 8 8 7 8 9 10 11 10 8 7 5 5 5 5 6 6 7 9 10 10 11 11 10 11 12 12 13 13 15 16 17 19 21 22 23 25 26 27 27 26 25 25 24 22 20 19 19 20 20 22 23 24 26
3 2 1 5 7 7 7 1 2 0 2 4 5 2 6 6 11 10 6 9 11 11 9 6 6 6 4 3 0 1 2 4 5 5 5 5 5 6 7 7 7 8 8 8 8 7 6 6 6 7 8 9 9 8 7 6 5 5 5 5 5 6 7 8 9 9 10 10 11 11 11 12 13 13 14 15 16 18 20 21 22 22 22 21 21 21 22 21 20 20 20 19 20 21 24 25 26
2 1 1 2 2 5 6 1 2 1 1 6 6 2 6 7 11 7 6 9 12 10 7 6 6 7 6 4 3 1 1 2 2 3 3 4 5 6 7 7 7 7 8 8 7 6 5 5 6 7 8 8 8 8 8 7 6 6 5 4 3 4 5 6 6 7 9 10 10 11 11 12 12 13 14 14 15 15 16 16 17 16 17 18 18 19 20 20 20 20 20 20 20 20 22 25 27
2 1 3 3 2 5 9 5 3 1 1 4 6 2 5 8 11 7 6 11 12 6 6 7 7 8 7 5 5 4 4 3 2 2 2 3 4 5 6 7 7 7 6 6 5 4 3 4 5 6 7 7 7 7 7 6 6 5 4 3 4 4 4 5 5 6 7 9 10 11 11 12 12 13 13 14 14 13 13 14 13 13 13 15 16 17 18 19 20 21 21 21 21 20 20 23 25
3 1 3 3 3 3 7 5 1 1 2 1 2 1 4 5 9 9 10 13 7 4 7 8 8 8 8 7 7 6 5 4 3 3 3 4 5 5 6 6 7 6 6 5 3 2 1 1 2 4 5 5 5 5 5 5 4 4 3 3 4 3 3 4 4 4 6 8 9 10 11 11 11 12 12 13 13 13 13 13 13 13 13 14 16 17 18 19 20 21 22 22 22 21 19 19 21
3 1 2 4 4 2 3 4 4 5 4 0 1 1 6 7 13 15 13 10 3 10 10 9 9 8 9 9 9 8 7 6 5 6 6 6 6 5 6 6 7 6 6 6 5 4 3 3 3 2 2 3 3 3 3 3 3 3 2 3 3 3 3 3 4 4 5 6 8 9 11 11 12 13 14 14 15 15 15 15 15 15 15 16 17 18 18 20 21 22 23 23 23 22 21 19 20
3 2 2 4 3 4 4 4 4 5 4 2 1 3 8 10 13 13 13 8 7 13 13 11 10 10 11 11 12 11 11 10 10 9 8 7 7 7 7 7 7 7 7 7 6 5 5 5 4 3 4 4 4 4 4 3 3 2 2 2 2 2 2 3 4 5 5 6 7 8 9 10 10 12 12 14 16 17 17 16 16 16 16 17 18 19 20 20 20 21 23 23 23 23 23 22 21
6 5 5 3 4 5 5 5 5 2 4 4 4 5 8 10 9 10 14 8 12 15 14 13 13 13 14 14 14 14 15 15 13 11 9 9 9 8 8 8 7 7 7 7 6 6 6 6 4 4 5 5 5 5 5 5 4 4 3 3 3 4 4 2 3 4 4 6 6 7 8 9 9 10 9 11 14 17 18 18 18 18 18 19 19 20 20 21 21 22 22 22 23 24 24 23 23
4 2 2 4 5 6 5 5 5 0 1 6 5 3 7 9 5 9 10 8 13 13 14 15 14 14 15 15 16 16 17 16 14 12 12 11 11 10 10 10 10 11 12 13 13 13 12 10 8 9 9 6 5 5 5 5 5 4 3 3 3 3 3 3 3 2 2 4 5 5 6 7 8 9 10 11 12 13 15 17 18 18 19 20 19 18 20 21 22 22 21 21 23 24 24 24 24
2 1 2 4 5 6 6 6 5 1 2 4 3 3 8 7 4 9 9 8 9 9 12 13 14 15 15 16 17 17 18 18 17 18 18 18 18 18 18 19 20 22 23 23 23 22 20 19 18 17 15 13 12 11 8 7 7 5 4 3 2 1 3 3 4 5 5 5 6 7 7 7 7 8 9 11 12 11 11 12 13 15 17 18 18 19 20 21 21 21 21 21 22 23 23 24 24
2 2 2 4 4 4 7 6 4 1 3 3 2 2 8 5 4 8 10 9 9 10 11 12 13 15 15 16 17 17 20 21 22 24 25 26 26 26 27 28 29 29 29 28 28 26 25 25 24 23 22 21 20 18 16 15 14 12 9 8 6 3 2 2 1 2 4 6 7 8 9 10 10 11 12 13 15 15 14 13 12 13 14 15 16 17 18 19 20 21 21 22 23 24 24 24 25
2 3 3 4 3 1 4 5 4 2 1 2 2 4 6 3 3 6 9 11 13 14 14 13 13 14 15 15 16 18 21 23 25 27 28 30 30 30 30 30 30 29 29 29 28 28 27 27 26 25 25 25 24 22 21 19 17 16 15 14 12 9 8 6 3 2 3 4 4 5 7 8 10 12 14 15 17 18 19 19 18 18 17 18 18 18 19 19 20 20 21 21 22 24 24 24 25
3 5 5 5 5 5 6 4 5 4 3 1 0 2 5 2 2 1 6 10 12 13 13 14 13 13 14 15 17 19 22 24 26 28 30 31 30 30 30 30 29 29 30 29 28 28 27 27 26 26 26 26 25 24 22 20 18 17 16 16 16 14 13 10 8 8 8 6 5 5 5 6 7 8 10 12 13 15 17 18 19 20 21 21 21 21 21 20 20 20 20 21 21 22 23 24 24
4 5 9 10 8 8 6 2 5 4 3 3 3 3 5 3 1 3 4 5 6 8 10 12 10 12 13 15 17 19 22 24 26 28 30 30 29 28 28 28 28 29 29 28 26 26 25 25 24 24 24 24 24 23 21 19 19 18 16 16 17 15 15 14 15 15 14 12 11 10 8 7 7 7 7 8 9 11 13 14 16 17 18 20 20 21 21 21 20 20 21 21 20 20 21 22 24
2 4 8 9 7 6 4 2 2 1 3 3 3 1 5 5 3 4 5 4 4 5 7 8 8 10 12 14 16 19 22 24 26 28 28 28 27 26 27 27 27 27 26 24 23 22 22 22 21 21 22 22 22 21 19 18 17 17 16 16 16 16 17 17 17 16 15 14 12 11 10 9 8 8 7 7 7 8 9 11 12 14 15 16 17 18 19 20 21 21 21 22 21 20 20 21 22
3 4 4 6 6 6 5 5 4 2 2 4 3 1 3 4 4 2 6 6 3 3 4 4 7 9 11 13 16 19 22 24 26 27 27 27 25 25 25 25 25 25 23 21 20 20 19 19 19 18 19 20 19 18 17 17 17 17 16 16 16 17 17 17 16 14 13 13 11 11 12 11 10 10 9 8 7 7 7 8 9 11 12 14 15 16 17 18 19 20 21 23 23 22 22 22 23
5 3 6 6 6 6 4 5 2 1 2 4 5 1 2 5 4 1 5 4 2 3 3 2 5 8 11 13 15 18 21 23 25 26 26 25 24 23 23 23 22 21 19 18 18 17 17 16 16 15 17 18 18 16 16 16 16 16 15 15 15 16 16 15 13 11 11 11 10 11 11 12 12 12 11 11 10 9 8 8 8 8 10 11 12 14 15 16 17 18 19 21 22 23 23 24 25
4 5 6 5 5 5 4 5 3 2 2 4 6 3 2 5 4 1 2 3 5 5 4 4 7 9 11 13 15 17 20 22 24 24 24 23 22 21 20 20 19 18 17 16 15 15 14 13 12 13 16 16 15 15 14 15 14 13 13 14 14 15 14 12 9 9 10 10 9 10 11 11 12 12 12 12 12 11 11 10 9 9 9 10 11 12 13 14 15 17 18 18 20 21 23 24 25
6 6 6 6 5 5 4 3 3 2 2 6 8 7 5 4 5 3 4 3 4 6 5 6 8 11 13 13 15 17 19 21 22 22 22 21 20 19 17 16 16 16 14 13 12 12 11 11 11 12 15 14 13 13 12 12 11 11 11 11 11 11 10 9 8 9 10 9 9 11 11 10 10 11 11 11 12 12 12 12 12 11 11 11 11 11 12 13 14 15 16 17 18 20 21 23 24
6 4 4 3 3 4 4 4 3 0 5 5 5 4 5 4 5 4 4 2 3 6 7 9 11 15 16 16 16 18 20 21 21 21 21 19 18 16 14 14 14 13 11 10 10 10 10 10 10 11 13 12 12 12 11 11 10 10 11 10 9 9 9 8 8 9 10 10 11 11 10 9 9 9 9 10 11 12 13 13 13 13 13 13 14 14 14 14 14 15 15 16 17 18 20 22 23
5 4 5 3 2 3 3 3 0 3 6 4 2 1 3 6 5 3 3 3 3 6 7 14 20 21 21 19 19 19 19 20 20 20 19 18 16 14 12 11 11 10 9 9 9 8 8 9 9 10 11 11 10 10 10 10 10 10 10 10 10 10 9 9 10 10 10 11 11 11 11 11 12 12 12 13 14 14 15 15 15 15 15 16 16 17 17 17 17 17 17 17 17 18 19 20 21
4 4 4 4 1 0 2 3 2 4 5 2 1 1 2 5 3 2 4 5 6 8 10 20 27 26 25 22 20 19 19 19 19 19 18 16 14 12 10 9 8 7 7 7 7 7 6 7 7 8 9 8 7 8 8 8 8 8 9 9 9 9 10 11 11 11 12 12 12 13 13 14 14 15 16 16 17 17 17 17 18 17 17 17 17 18 18 19 19 19 19 19 19 19 20 20 21
4 4 5 4 4 4 4 3 3 4 4 2 2 1 2 3 1 2 4 3 3 1 11 22 26 25 25 22 21 20 19 19 19 18 17 14 12 10 8 7 6 6 6 5 5 5 4 5 6 6 6 6 6 6 6 6 6 6 7 7 8 9 10 11 11 12 12 13 13 14 14 15 15 15 16 16 17 17 17 17 18 18 19 19 19 19 20 20 20 20 20 20 20 21 21 20 21
2 3 4 2 4 4 2 3 5 3 3 3 2 3 4 4 1 2 1 3 5 7 15 21 22 23 23 22 21 21 20 19 19 18 16 14 12 10 7 6 5 4 4 3 3 3 3 3 4 4 4 4 4 4 4 4 4 4 5 6 7 8 8 9 10 11 12 13 14 15 15 16 16 16 16 16 17 18 19 19 19 20 20 20 21 21 22 22 22 22 23 23 22 23 22 22 22
2 2 3 4 4 5 2 2 1 3 1 4 2 3 4 1 0 2 3 4 4 5 11 17 20 21 21 22 21 21 21 20 19 17 15 13 11 9 7 5 4 3 3 2 2 2 2 2 2 2 2 2 1 1 1 1 2 3 4 5 6 6 7 8 9 10 12 13 14 15 16 16 17 18 18 19 19 20 20 21 21 21 22 23 23 24 24 25 25 25 25 25 25 26 26 25 24
5 3 5 3 2 4 3 1 3 3 3 4 1 4 4 2 2 2 3 1 2 3 7 12 16 19 21 22 23 22 21 20 18 17 16 13 11 9 7 5 4 3 3 2 2 2 1 1 1 1 1 1 1 1 0 1 2 2 3 3 4 5 5 7 8 9 10 11 13 14 15 16 17 19 20 21 22 23 24 25 25 25 26 26 26 27 27 28 28 28 28 27 27 28 29 28 27
4 3 3 4 3 1 2 2 2 1 3 4 3 4 3 4 4 2 4 8 8 7 7 9 14 19 22 24 25 24 23 21 20 19 16 14 12 10 7 6 5 5 4 4 4 4 3 3 3 3 3 3 2 1 1 0 1 2 2 3 4 5 6 7 9 10 11 13 14 15 15 16 17 18 19 20 22 23 25 26 28 29 30 31 31 31 32 32 32 32 32 31 31 30 31 31 30
3 2 1 2 2 4 3 2 3 2 3 3 5 5 4 5 5 6 9 11 12 11 9 9 14 21 26 28 29 27 25 24 22 20 17 15 13 11 9 7 7 7 7 7 6 6 5 5 5 5 4 3 2 2 1 2 3 4 5 6 7 8 9 11 12 13 15 16 17 18 18 19 19 20 21 21 21 22 23 24 25 27 29 31 33 34 35 36 37 37 37 36 36 35 35 35 34
2 2 2 1 1 2 1 1 2 3 3 3 3 5 6 4 3 6 8 8 11 14 11 11 17 24 29 31 31 29 27 25 22 20 18 16 14 12 10 9 9 8 8 8 8 7 7 7 6 5 4 3 3 3 3 4 5 6 7 8 9 10 11 13 14 15 16 17 18 19 19 20 20 21 21 22 22 22 23 24 25 25 27 28 30 31 33 36 37 39 40 40 41 41 40 40 39
4 5 5 5 4 3 1 3 2 2 3 4 4 6 7 4 1 3 5 4 10 15 15 15 21 28 31 31 30 29 27 24 22 21 19 17 16 14 12 11 10 10 10 10 9 8 8 7 6 5 5 4 4 4 4 5 6 7 9 10 11 12 14 15 16 17 17 18 19 20 20 21 21 22 23 24 25 26 26 27 28 29 30 30 31 31 32 34 36 38 39 40 42 43 44 44 44
Wind_Direction
307 302 301 300 309 306 289 298 217 0 63 90 318 41 231 217 200 224 281 293 299 262 236 277 244 178 167 204 217 241 221 194 196 120 224 255 324 324 339 35 157 78 137 182 194 191 187 188 195 199 203 203 202 205 208 209 211 213 215 217 218 221 222 219 211 202 195 187 186 185 186 185 184 186 189 197 207 212 202 184 170 164 151 141 140 150 169 192 203 196 188 183 200 202 186 194 195
316 303 309 305 320 320 271 340 84 351 48 81 280 177 260 311 324 222 213 227 223 267 262 217 112 204 254 279 258 304 253 253 249 226 264 266 298 318 334 347 235 174 174 187 199 198 193 190 192 197 203 206 208 211 213 213 215 218 220 222 219 220 219 216 212 208 201 193 193 191 195 198 201 208 219 232 246 253 246 228 195 176 149 146 162 165 187 208 211 200 192 194 228 235 220 219 210
329 311 318 303 316 339 276 30 89 62 70 110 276 244 298 13 232 230 215 227 240 297 11 22 42 209 92 25 329 141 245 282 267 236 266 276 292 333 337 324 300 213 194 191 207 206 201 194 193 195 200 206 210 212 215 217 219 221 224 227 222 220 217 212 210 205 202 200 200 202 207 212 221 229 238 248 259 262 260 251 228 201 161 166 182 186 201 213 222 207 190 210 256 259 252 241 234
341 334 342 309 293 359 52 42 120 112 108 182 287 268 257 191 227 241 239 250 234 262 319 347 20 256 315 356 301 252 271 290 270 220 260 303 321 354 359 343 309 247 208 198 206 211 209 201 198 197 199 203 210 215 217 220 221 222 225 227 222 222 220 215 210 204 202 204 205 208 214 220 227 235 244 256 265 261 255 249 233 205 173 185 195 202 209 215 233 215 191 238 279 289 280 266 258
357 19 14 327 283 29 76 72 101 97 165 182 120 270 248 205 228 257 266 223 207 259 323 336 14 324 301 306 265 260 303 317 276 228 278 320 346 8 13 6 326 270 227 210 205 211 211 207 205 202 203 203 208 215 218 222 224 225 224 223 219 220 223 218 213 209 208 209 211 214 219 225 228 239 251 263 263 245 234 232 223 200 183 201 211 217 226 238 254 241 228 255 292 299 290 280 269
13 38 13 10 83 87 95 92 105 228 220 170 144 259 251 212 220 267 303 146 196 282 295 319 10 335 321 316 272 258 306 323 306 281 292 315 352 7 10 12 353 283 240 217 207 211 210 212 211 208 209 207 211 215 218 222 225 227 225 223 221 221 224 220 216 215 215 216 218 223 225 229 235 248 258 263 247 211 203 205 206 199 196 211 221 230 242 253 264 260 252 270 295 293 282 279 275
358 348 350 42 71 35 94 124 184 237 236 172 175 245 253 229 208 258 28 109 290 306 294 341 13 347 344 345 318 302 313 305 302 291 288 300 340 359 2 10 4 312 254 232 218 213 215 216 214 214 215 213 216 219 221 223 226 229 227 227 227 227 227 223 222 220 220 221 224 228 230 235 241 247 249 249 229 202 195 198 204 202 206 220 228 236 247 255 266 269 264 277 291 285 275 274 273
5 350 358 73 45 26 88 113 229 221 238 222 233 248 271 272 216 218 46 85 320 313 329 332 6 14 291 327 316 309 318 310 305 280 270 286 318 341 354 14 13 349 283 247 233 222 222 221 217 218 218 218 220 223 225 227 230 233 230 231 233 234 233 229 227 226 225 225 228 231 234 240 243 243 248 245 227 210 201 202 212 210 214 228 239 247 255 265 277 280 276 288 295 282 275 273 270
10 359 6 66 70 31 51 7 298 243 264 290 286 277 298 297 243 240 90 80 352 320 334 314 325 342 303 312 308 307 320 325 321 275 256 269 294 318 339 23 26 7 329 265 246 236 231 228 223 220 222 223 225 227 228 230 233 236 235 235 237 237 236 233 231 231 231 231 231 233 236 242 241 243 251 247 230 218 211 213 225 225 227 238 252 261 266 274 282 284 286 305 308 287 280 276 269
7 21 56 71 75 39 16 310 315 264 259 290 289 287 316 270 240 56 80 71 31 340 343 332 271 282 304 308 310 326 335 334 327 271 250 263 287 296 298 16 31 19 346 289 256 247 242 237 230 224 224 225 228 231 230 231 234 237 239 238 240 240 239 238 234 235 235 236 235 235 237 239 242 244 247 248 237 225 219 222 231 235 244 255 265 269 272 275 276 281 289 303 303 287 282 275 265
2 26 69 75 64 52 67 247 293 284 277 303 293 278 293 270 264 37 41 53 63 329 334 345 272 259 303 298 304 328 337 347 340 286 266 272 285 279 268 308 12 12 345 296 261 249 246 243 238 230 226 227 230 234 234 233 235 237 240 240 242 242 242 241 239 239 239 239 239 238 238 237 241 240 238 244 240 233 227 224 235 245 259 273 277 274 272 273 273 278 288 297 290 278 276 269 255
11 12 55 85 108 176 183 229 282 288 307 326 290 283 319 289 310 334 346 25 292 315 320 330 297 298 336 295 314 341 2 21 14 334 298 287 284 275 270 277 324 347 337 301 268 252 246 245 244 237 231 229 231 236 237 235 236 238 240 241 242 241 241 242 241 241 242 242 242 240 238 238 239 236 235 240 241 243 238 229 238 250 266 283 288 284 277 274 273 277 289 295 276 269 267 259 244
74 136 76 91 156 160 157 220 275 304 332 324 247 317 332 304 329 312 260 276 294 308 326 325 274 294 285 290 313 0 9 1 353 340 317 300 288 277 273 276 299 322 325 312 284 263 252 247 244 243 238 232 231 234 237 236 237 239 241 242 243 242 240 241 242 242 243 243 243 241 237 238 236 233 233 237 244 251 248 239 241 253 267 286 293 291 286 283 278 282 295 282 260 262 257 250 241
83 142 98 107 90 125 167 269 320 50 353 301 302 324 322 318 339 331 330 316 289 283 328 294 245 298 286 286 302 326 336 333 330 326 319 307 291 278 272 274 292 304 312 316 297 271 260 253 246 243 242 238 235 234 235 235 236 239 241 242 244 244 242 242 242 242 243 242 243 242 239 238 235 232 231 234 242 249 251 247 247 255 267 285 291 286 283 284 284 291 293 260 250 254 246 242 240
85 106 91 108 37 4 186 290 28 104 141 292 335 331 320 325 346 332 329 319 287 301 316 256 244 298 294 276 294 309 318 320 323 324 324 317 294 279 271 273 286 293 299 306 302 284 269 260 252 244 241 240 241 239 238 236 236 239 241 243 243 245 245 244 243 243 243 242 242 243 240 238 237 234 233 236 241 245 251 252 254 258 266 281 286 281 279 279 283 289 275 248 246 245 238 237 238
75 85 71 82 30 341 165 162 77 88 265 281 343 333 321 318 341 339 327 305 291 299 294 271 270 280 281 280 292 304 310 314 320 323 327 328 306 283 274 274 281 288 293 297 299 293 280 269 259 250 244 241 243 244 244 242 239 239 242 243 244 244 246 246 246 244 243 242 242 242 241 239 238 237 237 238 240 244 249 253 258 261 267 277 281 280 280 277 280 278 261 248 248 241 235 237 239
54 65 68 60 173 193 193 198 148 110 264 290 341 336 319 305 320 326 316 297 290 297 296 292 288 283 285 289 298 304 308 314 318 318 320 324 316 298 284 281 283 288 293 294 294 291 288 282 270 259 251 245 244 245 246 246 244 241 242 244 244 244 245 246 247 246 244 243 244 244 241 240 240 240 240 238 237 241 247 252 258 264 270 277 280 281 279 277 275 268 258 253 250 242 239 240 241
38 87 95 269 194 194 186 185 187 161 252 285 323 321 280 296 313 319 311 290 294 304 305 307 305 306 311 313 316 315 314 315 315 314 314 317 317 312 305 298 295 297 298 296 295 294 293 290 280 268 259 252 248 246 245 246 247 244 243 244 246 245 244 243 244 245 244 244 246 247 244 243 242 241 240 236 236 240 246 252 258 267 274 278 281 280 278 275 270 262 255 253 250 245 243 245 246
66 103 105 244 201 209 202 187 199 181 271 279 298 302 270 276 301 315 305 295 308 313 311 316 324 335 343 339 332 324 318 315 315 314 312 316 315 313 312 304 300 301 300 298 298 298 296 294 290 279 267 259 255 251 248 247 247 247 246 245 246 247 246 244 242 242 242 243 245 249 248 247 245 242 238 236 238 243 248 254 259 268 275 280 282 281 279 276 271 261 250 248 247 246 247 248 249
76 99 118 248 215 234 242 220 234 248 272 280 297 299 280 287 296 293 280 306 312 305 303 313 325 335 340 337 332 327 323 321 318 314 311 314 311 307 305 300 297 296 294 292 290 288 286 290 297 295 281 266 259 257 254 251 249 249 248 248 248 247 247 246 245 244 242 242 245 249 250 249 247 245 241 238 239 244 250 254 258 267 275 282 286 286 283 278 273 266 255 246 246 248 250 250 251
172 144 183 233 189 255 270 265 275 271 265 274 296 310 303 308 306 279 306 334 309 299 305 309 316 326 333 333 334 332 330 329 320 311 307 307 306 303 299 298 297 295 294 290 285 280 277 280 287 292 289 276 265 260 259 258 255 253 251 250 250 249 248 247 247 246 245 245 246 249 250 250 248 246 245 240 240 243 248 252 257 265 273 282 288 290 286 279 274 270 265 251 248 252 252 252 253
184 216 238 250 192 258 283 291 295 287 290 290 303 315 302 308 304 289 301 282 269 295 310 314 315 322 330 333 336 335 333 335 331 319 311 308 306 302 298 297 296 296 295 292 287 280 274 273 275 279 281 280 275 268 264 263 261 258 256 254 253 251 251 250 247 247 247 248 248 249 250 250 248 247 246 244 242 243 246 251 257 263 271 280 286 290 287 281 276 271 268 255 249 253 254 254 255
220 264 261 264 248 254 280 289 289 288 294 292 298 299 292 301 299 295 284 266 278 298 308 313 320 328 335 340 343 344 346 347 343 334 324 319 314 308 302 297 294 293 292 291 288 280 271 266 268 272 275 277 279 278 272 269 266 264 262 259 257 255 254 253 251 249 250 250 249 249 251 252 250 247 246 246 246 246 249 253 257 262 268 277 282 286 286 281 277 272 268 257 248 252 254 254 256
199 269 272 275 270 264 280 290 289 287 285 285 290 286 280 281 287 301 288 280 292 305 308 316 330 342 349 0 3 359 356 350 345 341 332 323 316 312 307 301 295 290 286 285 284 278 270 263 263 266 270 275 275 277 278 278 276 273 269 264 260 258 256 255 255 253 253 254 253 251 252 253 251 248 246 246 248 249 252 256 260 264 269 276 280 283 284 281 277 273 269 259 249 251 254 254 256
185 235 268 282 284 281 288 292 288 286 285 288 288 271 270 274 275 282 281 286 305 309 317 343 351 354 357 6 13 7 352 342 336 330 323 316 310 306 302 299 296 292 287 282 280 275 266 261 261 259 260 266 268 271 276 281 282 281 279 276 270 263 259 258 258 257 254 254 256 255 254 253 252 250 248 246 248 250 253 257 262 266 270 275 279 281 283 283 280 275 269 261 251 249 252 254 256
199 212 254 278 287 289 291 286 283 285 285 286 277 270 279 285 279 267 272 285 308 313 352 13 4 2 358 359 0 352 339 329 320 311 306 304 301 296 293 291 289 291 292 287 279 269 258 254 253 251 247 248 256 260 269 277 281 285 288 288 284 276 268 262 259 259 259 256 257 259 257 256 255 254 252 250 250 252 254 258 262 266 270 275 279 282 285 287 284 278 272 264 253 248 251 254 256
207 226 264 273 283 289 287 280 282 284 281 274 249 265 285 281 162 261 272 319 315 344 33 23 10 17 8 358 341 336 332 325 321 309 294 286 283 286 286 284 285 290 294 291 283 270 255 247 246 246 243 238 239 242 256 269 278 286 292 292 291 288 282 271 262 260 262 261 261 263 262 260 258 257 256 256 256 256 258 261 265 269 272 276 279 283 287 290 288 282 277 269 257 246 247 251 253
255 303 294 286 296 296 284 276 282 284 278 262 227 251 292 143 171 250 262 2 352 17 50 42 37 47 33 0 331 327 321 320 318 308 299 293 292 299 300 298 301 301 297 294 292 283 266 253 245 245 247 242 230 220 230 256 274 284 290 295 296 296 292 283 276 269 265 265 265 265 265 264 261 260 257 257 259 260 262 265 268 271 274 277 280 283 286 288 288 284 282 277 264 248 243 246 249
301 335 311 301 333 313 280 265 271 243 226 250 192 273 305 190 216 241 266 329 352 27 59 63 80 93 89 43 322 320 312 309 302 302 314 323 327 333 332 331 327 321 313 306 302 298 288 269 252 246 245 241 231 218 210 222 249 267 279 291 297 297 296 292 288 284 279 275 271 269 269 269 266 265 262 260 262 265 266 268 271 273 276 278 280 281 284 286 286 284 285 284 275 257 245 245 247
291 346 351 306 352 319 276 160 141 106 264 215 151 256 280 255 236 243 301 332 351 26 56 68 91 106 114 122 66 329 316 303 300 312 328 337 341 344 344 343 337 330 324 315 307 302 292 276 261 250 241 237 237 229 215 209 220 240 258 275 290 298 300 301 300 297 293 286 281 279 279 279 277 275 273 271 272 272 272 272 273 276 278 278 279 281 283 285 285 285 286 288 286 270 253 247 248
284 344 31 340 345 276 295 26 187 340 288 194 147 210 261 274 272 283 351 349 351 17 63 78 92 106 115 117 105 82 48 343 327 343 342 348 349 347 351 350 345 339 329 320 313 306 285 262 248 241 235 232 230 225 214 206 212 223 232 247 270 285 292 297 300 299 295 290 288 286 284 285 285 282 278 276 275 274 274 276 279 281 281 279 280 282 284 286 287 289 290 291 293 285 265 252 250
21 310 303 329 193 263 311 324 203 199 245 171 143 195 268 277 286 309 6 349 342 8 81 87 94 100 104 105 98 91 78 62 35 24 9 4 357 354 358 356 356 353 345 342 337 324 283 247 228 224 222 222 221 218 211 207 215 217 216 229 244 259 272 275 279 282 280 278 279 281 282 282 282 282 280 276 273 273 277 281 286 287 283 280 281 283 285 288 290 291 293 294 295 293 279 262 256
359 193 247 272 207 269 319 333 357 106 110 113 140 215 279 280 279 296 342 349 350 98 105 95 94 90 90 90 88 91 90 88 72 56 45 32 24 19 16 15 18 20 23 26 16 2 344 202 195 205 204 204 206 208 212 213 217 213 211 222 229 234 244 253 262 264 263 265 266 269 273 274 276 277 277 278 280 280 280 282 284 285 284 284 284 285 287 289 291 292 293 295 297 296 288 275 268
313 337 237 248 210 216 294 310 352 46 84 304 357 226 254 272 277 291 338 4 87 120 111 101 91 84 84 82 81 82 83 84 75 65 62 57 56 51 47 47 45 45 49 48 46 50 57 77 102 128 149 164 169 169 180 193 198 204 208 221 234 230 224 232 241 244 252 258 258 257 257 258 262 265 267 270 276 279 280 282 283 282 282 282 283 284 287 287 289 291 294 295 297 296 292 287 283
209 196 211 257 240 224 248 266 308 17 27 268 227 246 260 274 277 301 355 28 109 112 112 105 93 88 84 80 77 75 75 76 73 72 76 80 81 78 75 73 68 63 61 58 54 53 56 62 70 85 101 113 126 127 121 122 136 152 154 171 204 194 196 229 233 231 238 246 251 253 253 255 258 261 262 263 265 268 271 273 275 278 279 278 279 279 280 283 286 290 292 295 296 296 294 292 291
183 183 171 205 241 250 243 249 266 329 348 282 239 240 262 272 279 331 3 46 100 105 107 97 91 89 84 82 78 75 76 75 75 79 85 90 91 90 88 83 77 72 69 68 65 61 61 60 62 81 87 97 116 125 125 125 128 131 132 140 138 126 132 163 166 169 197 225 241 251 257 262 264 264 263 263 261 258 258 260 260 265 268 270 272 277 280 283 286 285 285 289 292 293 293 294 295
133 133 156 206 233 266 265 260 280 3 298 279 268 264 272 273 297 357 9 57 79 85 92 88 89 89 86 87 82 80 79 78 83 87 88 89 89 88 86 85 84 84 83 81 79 74 71 73 78 82 83 93 113 118 126 140 143 141 147 154 146 143 165 204 208 195 202 222 240 248 251 252 254 256 257 262 265 263 261 260 257 257 259 259 259 267 274 277 279 281 283 286 287 288 290 293 294
97 142 249 264 237 257 264 257 289 25 167 272 326 316 278 280 340 10 27 59 53 62 86 86 90 90 90 90 86 87 88 91 95 93 93 93 92 92 92 92 91 88 85 82 79 77 75 76 78 78 79 84 85 84 90 100 102 99 103 112 115 185 210 231 246 253 252 248 250 253 254 253 253 255 254 258 266 272 271 269 267 265 266 265 260 261 264 265 268 275 280 282 283 284 287 289 290
136 138 207 266 247 274 284 278 311 33 153 273 323 257 273 306 29 24 40 64 61 73 89 90 94 94 92 92 92 95 98 97 97 95 96 95 95 95 93 91 88 86 84 82 80 78 77 77 76 76 76 78 77 77 79 80 80 79 80 83 78 78 92 73 340 273 265 260 258 257 258 259 260 261 260 260 262 266 269 271 273 272 272 274 273 272 271 270 271 272 273 273 275 278 280 283 285
156 148 165 248 253 308 282 291 332 6 105 262 221 224 272 315 67 42 54 78 80 83 91 91 94 94 93 98 99 100 100 97 97 97 97 98 97 95 92 90 87 86 84 82 81 79 78 76 75 75 75 75 74 74 73 73 73 75 77 78 76 75 73 60 42 27 345 315 295 281 275 271 267 265 263 264 265 266 269 270 270 271 272 274 275 277 277 278 278 278 277 276 276 277 278 280 282
236 201 191 229 238 214 227 279 338 346 8 10 138 302 292 265 194 83 77 86 81 81 87 85 88 95 100 106 105 103 102 101 100 99 99 99 98 94 91 89 86 84 81 78 78 77 76 76 75 74 74 73 72 70 69 69 70 72 73 77 79 81 83 81 77 69 55 36 21 8 349 325 306 293 282 277 276 275 274 274 273 273 273 273 273 273 274 275 277 279 280 278 278 279 281 281 281
286 233 206 217 224 217 228 307 9 8 342 343 30 338 293 306 281 182 136 82 70 71 76 80 87 99 106 108 107 107 106 104 102 101 100 99 96 94 91 87 83 80 77 76 75 75 75 75 74 74 73 73 73 72 72 71 72 73 73 76 78 80 82 79 71 64 59 49 38 32 27 14 358 340 325 312 301 295 289 286 285 282 280 278 276 274 273 273 275 276 278 278 276 276 277 278 276
295 248 205 209 204 192 203 170 103 176 252 293 36 230 267 315 316 195 149 95 76 66 64 79 95 104 111 112 113 113 109 108 105 103 103 100 97 94 89 85 82 79 78 77 75 74 73 72 71 71 71 71 70 70 69 67 65 64 62 61 63 64 64 62 58 54 52 47 38 36 38 36 32 22 9 354 337 324 313 304 299 295 292 289 285 281 277 275 274 273 274 276 277 276 276 277 275
248 248 153 159 168 173 180 155 153 221 252 319 360 135 261 287 283 209 130 110 87 75 65 80 105 115 121 122 121 119 115 112 110 108 106 102 97 93 89 85 83 81 80 78 75 73 71 69 68 67 67 68 66 64 61 57 55 55 54 52 55 57 56 57 55 51 49 46 39 37 36 35 37 35 31 24 14 3 346 332 322 313 307 302 298 294 289 284 279 275 272 272 274 276 276 278 278
244 213 114 127 145 147 136 120 125 348 34 313 302 1 272 264 272 28 118 137 206 181 176 155 137 136 136 134 130 124 120 117 114 111 107 103 98 94 90 86 84 83 80 76 73 71 68 66 65 65 67 67 64 60 54 52 51 49 49 47 50 54 55 55 53 50 50 45 40 39 36 32 31 30 30 28 23 20 13 2 349 337 327 319 314 309 304 299 293 287 281 276 273 273 274 276 278
195 134 94 72 75 82 76 97 107 38 61 248 247 193 218 271 278 213 145 225 228 188 187 192 166 156 150 144 138 130 124 120 117 114 110 105 100 95 91 88 85 82 77 74 72 71 69 67 65 64 66 66 63 59 51 51 50 46 47 47 50 55 56 55 50 46 47 41 36 37 35 32 28 25 25 24 23 23 20 14 7 360 351 341 332 325 318 313 309 303 297 289 282 278 275 274 275
136 107 65 42 32 44 44 62 87 43 273 243 233 200 189 267 283 216 182 208 192 164 170 191 179 170 164 155 146 137 131 126 123 119 113 107 101 98 94 90 85 81 78 74 72 71 68 67 59 56 63 63 61 59 52 50 51 47 49 50 49 52 50 42 34 33 35 30 28 30 29 26 25 22 20 17 16 18 17 14 12 8 2 356 349 343 338 333 328 322 313 304 295 288 282 277 274
110 86 72 60 341 15 26 357 44 92 253 259 261 219 181 227 264 237 216 220 182 176 178 179 181 179 172 163 153 145 139 134 130 124 117 110 106 103 99 93 88 86 82 76 72 68 64 63 52 44 53 55 51 50 46 45 47 48 50 49 47 47 39 28 22 22 23 19 21 24 20 17 16 14 11 7 6 7 7 6 4 1 358 356 355 353 350 346 342 337 331 325 315 305 295 288 283
89 97 93 89 323 360 358 311 3 229 250 265 283 201 196 236 244 232 247 275 269 258 218 180 175 177 173 166 160 153 148 144 138 129 121 116 112 109 105 98 93 90 84 76 72 65 58 57 45 34 41 46 42 38 36 35 35 38 40 38 39 38 30 25 23 20 19 14 12 9 5 4 3 360 359 359 0 0 359 357 356 355 353 351 349 348 346 344 343 340 338 336 331 325 318 310 301
146 147 131 131 137 105 279 270 267 271 268 274 278 182 254 273 265 218 258 288 295 282 229 186 175 173 171 167 164 161 157 152 144 134 127 122 120 116 112 105 100 93 85 77 71 64 56 50 41 32 38 46 41 35 34 29 25 27 26 23 24 22 17 17 17 17 16 13 9 5 3 2 360 358 357 356 357 356 354 353 352 351 349 346 342 340 338 337 337 337 336 336 333 331 329 326 320
178 159 136 146 153 170 222 222 211 261 285 292 286 220 206 224 250 237 251 302 348 156 177 173 172 171 169 168 169 167 163 158 150 140 135 132 128 126 122 116 109 98 89 82 75 70 58 50 44 35 40 46 38 34 31 22 20 20 14 12 12 9 9 9 8 10 9 6 5 3 1 360 358 357 355 352 350 347 346 347 346 344 343 341 338 336 333 330 330 329 330 330 329 327 326 325 323
204 125 111 163 181 163 200 204 176 186 299 290 220 224 221 187 194 306 1 51 64 113 148 159 166 172 173 174 174 172 169 163 156 148 145 144 141 139 136 129 122 107 96 89 81 78 62 50 47 37 37 42 35 30 24 15 17 11 4 6 6 5 5 1 359 359 357 356 356 354 353 352 350 348 346 343 340 338 337 336 336 336 336 335 334 332 330 329 327 326 325 324 323 322 321 321 320
159 129 174 212 173 123 112 268 59 87 265 272 196 237 286 313 49 349 33 59 70 114 149 160 167 172 176 179 178 176 174 168 162 158 155 154 153 152 150 145 137 123 115 110 104 98 78 53 49 48 50 63 63 48 24 10 3 354 353 358 355 351 348 344 343 343 343 344 342 341 342 340 338 337 335 335 334 333 331 330 329 329 328 328 328 327 326 325 324 323 323 322 321 319 317 318 317
127 179 209 187 113 88 98 249 344 36 247 272 212 216 255 255 250 337 19 174 188 182 177 172 174 178 181 183 182 181 178 173 170 167 166 166 166 165 164 164 165 163 168 171 160 147 130 122 110 99 111 129 133 120 53 359 346 342 337 339 337 332 330 329 330 329 328 329 327 327 328 328 327 326 325 325 324 324 325 324 324 324 324 324 323 323 322 321 320 319 318 318 317 315 313 312 313
125 178 181 115 134 153 94 167 227 246 245 278 290 260 238 211 213 212 213 211 201 197 195 188 187 187 187 188 187 185 182 181 179 176 176 178 177 178 178 181 188 189 197 197 186 184 180 179 173 165 171 172 169 172 164 235 281 305 317 326 330 329 331 330 330 329 325 323 322 322 322 321 320 319 318 317 316 315 315 315 316 318 319 320 320 321 320 320 318 317 316 314 313 311 308 307 306
75 106 76 58 153 168 151 158 172 189 226 265 297 303 272 231 204 185 204 205 187 184 193 197 197 193 191 191 189 188 187 186 184 182 185 187 186 189 191 195 204 205 206 203 197 194 188 186 188 187 192 192 192 211 242 287 301 314 322 329 331 329 330 329 328 327 325 324 324 323 322 320 319 318 317 316 316 315 313 312 312 312 312 314 315 316 317 317 317 315 314 313 311 309 307 305 303
135 149 178 231 138 132 199 215 133 141 178 217 267 282 268 251 197 189 216 208 182 184 186 190 198 197 197 196 192 191 190 188 188 189 192 194 194 197 200 205 210 210 208 205 200 197 193 194 199 205 218 231 245 266 285 299 308 316 322 325 327 326 326 326 326 325 324 325 324 323 321 320 320 319 319 319 319 319 318 316 315 314 312 311 311 311 312 311 311 311 310 310 309 308 306 304 303
164 184 195 187 166 129 199 249 208 141 172 181 209 261 266 258 203 208 232 208 181 185 181 184 197 200 200 199 196 194 193 191 194 196 198 201 202 205 209 213 215 211 208 205 201 202 203 208 219 227 238 247 260 280 297 306 310 316 321 324 325 326 326 327 327 326 326 326 324 323 322 321 321 322 323 323 323 322 321 319 318 317 315 313 311 309 308 306 304 303 303 303 303 303 302 302 301